Погода в Нефтчале

Погода в Нефтчале : погода сейчас, прогноз погоды и архив. Всё, что Вы хотите узнать о погоде в Нефтчале!

Поиск расширенной информации на нашем сайте:

Другие новости

Новости СМИ2

Главная страница сайта

Новости сайта

03.07.2017

Напоминаем, что на нашем специализированном сайте Метеоцентр.Азия вы можете получить высокодетализированные автоматические прогнозы погоды по пунктам России, СНГ и мира в авиационном формате (включающие направление и скорость ветра, видимость, явления погоды, количество и форму облачности, нижнюю и верхнюю границу облачности).

Рекомендуем: Marina APM 200 25 недорого: насосная станция для частного дома. Станция бытового водоснабжения.

Погода в Нефтчале - сегодня

Время (UTC), дата Ветер
(°,м/с) 
Видим.   Явления Облачность Т
(°С)
Тd
(°С)
f(%) Тe
(°С)
Pmin
(гПа)
dP
(гПа)
Po
(мм)
O2
(г/м3)
Тmin Tmax R s Состояние
почвы
06 22.11.17 270 (З) 20000 м    6/0 средняя 
[Ac trans]
+12.7 +7.6 71 +12  1004.3  2.7  755  290  +9.9         
09 22.11.17 050 (СВ) 20000 м    9/0 средняя 
[Ac und]
+15.9 +10.3 69 +17  1006.1  1.8  757  286           
12 22.11.17 050 (СВ) 20000 м    10/10 600 м 
[Sc]
+14.8 +8 64 +14  1007.8  1.7  758  288           
15 22.11.17 050 (СВ) 10  10 км    10/10 600 м 
[Sc]
+11.8 +6.8 71 +10  1010.1  2.3  760  292           
18 22.11.17 050 (СВ) 16-20{20}  10 км    10/10 600 м 
[Frnb]
+11.3 +6.7 73 +8  1012.1  2.1  761  293    +16.8       
21 22.11.17 050 (СВ) 23-28{28}  10 км    10/10 600 м 
[Frnb]
+10.1 +6.2 77 +6  1013.1  762  295           
00 23.11.17 050 (СВ) 18-23{23}  10 км    10/10 600 м 
[Frnb]
+9.2 +5.1 75 +5  1013.3  0.2  762  296           
03 23.11.17 050 (СВ) 10 км    10/10 600 м 
[Sc]
+8.1 +3.8 74 +6  1014.1  0.8  763  298           
06 23.11.17 050 (СВ) 20000 м    10/0 средняя 
[Ac As]
+9.8 +5 72 +8  1014.7  0.6  763  296  +7.9         
09 23.11.17 050 (СВ) 20000 м    10/0 средняя 
[Ac As]
+10.5 +5.5 71 +9  1014  -0.7  763  295           
12 23.11.17 050 (СВ) 20000 м    6/0 средняя 
[Ac und]
+11 +5.3 68 +10  1013.8  -0.2  763  295           
15 23.11.17 тихо ()   10 км    ясно 
+7.5 +5 84 +8  1014.5  0.7  763  298           
21 23.11.17 320 (СЗ) 10 км    ясно 
+5.8 +4.2 89 +6  1016.5  1.5  765  301           
00 24.11.17 320 (СЗ) 10 км    5/0 средняя 
[Ac und]
+5.9 +4 88 +6  1016.7  0.2  765  301           
03 24.11.17 320 (СЗ) 10 км    10/0 средняя 
[Ac As]
+5.8 +4.2 89 +6  1017.9  1.2  766  301           
06 24.11.17 320 (СЗ) 10 км    9/0 средняя 
[Ac und]
+6 +3.6 85 +5  1019.2  1.3  767  302  +5.6         
09 24.11.17 320 (СЗ) 20000 м    8/8 600 м 
[Cu med, cong]
+9.4 +4.1 69 +9  1018.7  -0.6  766  298           
12 24.11.17 320 (СЗ) 20000 м    8/0 средняя 
[Ac und]
+9.5 +4.1 69 +10  1018.5  -0.2  766  298           
15 24.11.17 320 (СЗ) 10 км  слаб. дождь  10/10 600 м 
[Frnb|Ns]
+7.3 +2.3 71 +7  1020.2  1.7  767  301           
18 24.11.17 050 (СВ) 10 км  {дождь}  10/10 600 м 
[Frnb]
+6.6 +3.3 79 +6  1021  0.9  768  302    +11  0.0     
21 24.11.17 320 (СЗ) 10 км    8/0 средняя 
[Ac und]
+3.8 +1.8 87 +3  1020.7  -0.3  768  305           
00 25.11.17 320 (СЗ) 10 км    ясно 
+2.9 +1.1 88 +4  1021  0.3  768  306           
03 25.11.17 320 (СЗ) 10 км    ясно 
+2.8 +0.7 86 +4  1022.6  1.6  769  307           
06 25.11.17 270 (З) 20000 м    ясно 
+4 +1.7 85 +5  1025.3  2.7  771  306  +2.6    0.0     
09 25.11.17 320 (СЗ) 20000 м    ясно 
+10 -0.2 49 +10  1026.3  0.9  772  300           
Время (UTC), дата Ветер
(°,м/с) 
Видим.   Явления Облачность Т
(°С)
Тd
(°С)
f(%) Тe
(°С)
Pmin
(гПа)
dP
(гПа)
Po
(мм)
O2
(г/м3)
Тmin Tmax R s Состояние
почвы

Для получения пояснительной информации подведите курсор к названию столбца.

ПОГОДА в Нефтчале - архив

Всё, что Вы хотите узнать о погоде в Нефтчале - удобно и подробно!

Выберите нужную дату (начиная с 1 января 2015* года) и нажмите кнопку "Найти".
Будут отображены архивные сводки погоды по пункту Нефтчала, начиная с указанной даты.


Отображать данные в формате CSV (для использования в таблицах Excel)


Внимание! Наш архив погоды предназначен исключительно для личного некоммерческого использования в познавательных целях. Если Вам необходимы официальные справки о состоянии погоды (для производственных, юридических, коммерческих и т.п. целей), обращайтесь в органы Росгидромета.

*Примечание: данная дата относится к архиву по метеостанциям СССР (Россия, СНГ, Балтия).
Архив по метеостанциям Зарубежной Европы и Азии (кроме Китая) хранится 10 дней, по другим регионам земного шара (Китай, Африка, Америка, Австралия, Океания) - 1 день.

Нефтчала - район местоположения метеостанции


Название, широта, долгота, высота метеостанции:
Нефтчала 39.4°ш. 49.2°д. -24 м над ур. моря [Азербайджан]

Дополнительная информация

В oтличие oт бoльшинства пoгoдных сайтoв мы публикуем пoдрoбную метеoинфoрмацию в детальнoм прoфессиoнальнoм фoрмате.

Характеристики температуры и влажнoсти вoздуха измеряются на высoте 2 м в тени вдали oт зданий и деревьев.
Скoрoсть ветра измеряется на высoте 10 м (на урoвне рoста челoвека скoрoсть ветра ниже в 1.5-2 раза). Если метеoстанция нахoдится в гoрoде или в лесу, тo скoрoсть ветра занижена на 2-4 м/с пo сравнению с oткрытым местoм. Скoрoсть ветра над акватoриями крупных рек и oзёр, а также на вершинах хoлмoв на 2-5 м/с выше, чем в oбычных услoвиях.
Атмoсфернoе давление в разных тoчках местнoсти мoжет значительнo oтличаться oт давления на метеoстанции, в зависимoсти oт услoвий рельефа (при пoдъёме на 10 м давление пoнижается примернo на 1 мм рт.ст.).